This is the latest recevied weather packets stored in our database for station/object N4ZIQ. If no packets are shown the sender has not sent any weather packets the latest 10 day(s).
| Time | Temp. | Humidity | Pressure | Rain* | Wind** | Luminosity | Snow |
|---|---|---|---|---|---|---|---|
| 1777676460 | 30.56° C | 53% | 1009.3 hPa | 0 mm | - | 47 W/m² | - |
| 1777676147 | 30.56° C | 51% | 1009.3 hPa | 0 mm | - | 44 W/m² | - |
| 1777675847 | 31.11° C | 51% | 1009.3 hPa | 0 mm | - | 107 W/m² | - |
| 1777675573 | 30.56° C | 50% | 1009.3 hPa | 0 mm | - | 113 W/m² | - |
| 1777675247 | 31.11° C | 50% | 1009.2 hPa | 0 mm | - | 56 W/m² | - |
| 1777674947 | 31.67° C | 47% | 1009.2 hPa | 0 mm | - | 67 W/m² | - |
| 1777674661 | 31.67° C | 47% | 1009.1 hPa | 0 mm | - | 214 W/m² | - |
| 1777674365 | 32.22° C | 48% | 1009.1 hPa | 0 mm | - | 232 W/m² | - |
| 1777674048 | 32.22° C | 47% | 1009 hPa | 0 mm | - | 246 W/m² | - |
| 1777673752 | 32.22° C | 48% | 1009 hPa | 0 mm | - | 292 W/m² | - |
| 1777673447 | 32.22° C | 47% | 1009 hPa | 0 mm | - | 327 W/m² | - |
| 1777673147 | 32.22° C | 48% | 1009.2 hPa | 0 mm | - | 346 W/m² | - |
| 1777672853 | 31.67° C | 50% | 1009.1 hPa | 0 mm | - | 357 W/m² | - |
| 1777672547 | 31.67° C | 50% | 1009 hPa | 0 mm | - | 146 W/m² | - |
| 1777672245 | 31.67° C | 49% | 1009.2 hPa | 0 mm | - | 190 W/m² | - |
| 1777671951 | 31.67° C | 51% | 1008.9 hPa | 0 mm | - | 171 W/m² | - |
| 1777671646 | 31.67° C | 49% | 1009 hPa | 0 mm | - | 207 W/m² | - |
| 1777671345 | 31.67° C | 48% | 1009.1 hPa | 0 mm | - | 243 W/m² | - |
| 1777671054 | 31.11° C | 48% | 1009.1 hPa | 0 mm | - | 223 W/m² | - |
| 1777670749 | 31.67° C | 48% | 1009.2 hPa | 0 mm | - | 167 W/m² | - |
| 1777670448 | 31.67° C | 48% | 1009.2 hPa | 0 mm | - | 179 W/m² | - |
| 1777670154 | 31.67° C | 47% | 1009.2 hPa | 0 mm | - | 209 W/m² | - |
| 1777669848 | 32.22° C | 44% | 1009.2 hPa | 0 mm | - | 241 W/m² | - |
| 1777669546 | 32.78° C | 44% | 1009.2 hPa | 0 mm | - | 357 W/m² | - |
| 1777669251 | 32.78° C | 46% | 1009.4 hPa | 0 mm | - | 534 W/m² | - |
* Rain latest hour (hover to see other rain measurements)
** Current wind speed in m/s (hover to see current wind gust speed)